| time (UTC) | temp F | wind direction | speed knots | gust knots | rain 1hr in | rain 24hr in | rain mn in | humidity % | barometer mb |
| 20260506044545 | 63 | 33 | 0.0 | 3.5 | 0.00 | 0.00 | 0.00 | 75 | 1005.8 |
| 20260506043043 | 62 | 0 | 0.0 | 0.0 | 0.00 | 0.00 | 0.00 | 78 | 1005.7 |
| 20260506041556 | 62 | 0 | 0.0 | 0.0 | 0.00 | 0.00 | 0.00 | 79 | 1005.4 |
| 20260506040040 | 62 | 0 | 0.0 | 0.0 | 0.00 | 0.00 | 0.00 | 78 | 1005.2 |
| 20260506034542 | 63 | 0 | 0.0 | 0.0 | 0.00 | 0.00 | 0.00 | 77 | 1004.9 |
| 20260506033045 | 63 | 0 | 0.0 | 0.0 | 0.00 | 0.00 | 0.00 | 76 | 1004.7 |
| 20260506031546 | 63 | 0 | 0.0 | 0.0 | 0.00 | 0.00 | 0.00 | 77 | 1004.8 |
| 20260506030044 | 64 | 0 | 0.0 | 0.0 | 0.00 | 0.00 | 0.00 | 75 | 1004.7 |
| 20260506024604 | 65 | 0 | 0.0 | 0.0 | 0.00 | 0.00 | 0.00 | 73 | 1004.7 |
| 20260506023040 | 65 | 0 | 0.0 | 0.0 | 0.00 | 0.00 | 0.00 | 72 | 1004.7 |
| 20260506021537 | 66 | 0 | 0.0 | 0.0 | 0.00 | 0.00 | 0.00 | 69 | 1004.8 |
| 20260506020037 | 66 | 0 | 0.0 | 0.0 | 0.00 | 0.00 | 0.00 | 68 | 1004.9 |
| 20260506014550 | 67 | 0 | 0.0 | 0.0 | 0.00 | 0.00 | 0.00 | 67 | 1004.9 |
| 20260506013043 | 67 | 0 | 0.0 | 0.0 | 0.00 | 0.00 | 0.00 | 65 | 1004.7 |
| 20260506011543 | 68 | 0 | 0.0 | 0.0 | 0.00 | 0.00 | 0.00 | 65 | 1004.5 |
| 20260506010040 | 68 | 0 | 0.9 | 3.5 | 0.00 | 0.00 | 0.00 | 64 | 1004.4 |
| 20260506004542 | 69 | 0 | 0.0 | 0.9 | 0.00 | 0.00 | 0.00 | 60 | 1004.3 |
| 20260506003044 | 69 | 0 | 0.0 | 1.7 | 0.00 | 0.00 | 0.00 | 58 | 1004.0 |
| 20260506001605 | 70 | 0 | 0.0 | 3.5 | 0.00 | 0.00 | 0.00 | 59 | 1003.8 |
| 20260506000048 | 70 | 36 | 0.9 | 2.6 | 0.00 | 0.00 | 0.00 | 56 | 1003.7 |
| 20260505234549 | 71 | 0 | 0.9 | 4.3 | 0.00 | 0.00 | 0.00 | 54 | 1003.5 |
| 20260505233046 | 73 | 106 | 1.7 | 4.3 | 0.00 | 0.00 | 0.00 | 51 | 1003.5 |
| 20260505231548 | 75 | 33 | 0.0 | 2.6 | 0.00 | 0.00 | 0.00 | 45 | 1003.2 |
| 20260505230044 | 77 | 0 | 0.0 | 3.5 | 0.00 | 0.00 | 0.00 | 41 | 1003.0 |
| 20260505224547 | 78 | 0 | 0.0 | 3.5 | 0.00 | 0.00 | 0.00 | 33 | 1002.7 |
| 20260505223051 | 78 | 147 | 1.7 | 3.5 | 0.00 | 0.00 | 0.00 | 33 | 1002.7 |
| 20260505221549 | 78 | 171 | 1.7 | 5.2 | 0.00 | 0.00 | 0.00 | 35 | 1002.3 |
| 20260505220043 | 78 | 215 | 3.5 | 7.8 | 0.00 | 0.00 | 0.00 | 34 | 1002.1 |
| 20260505214559 | 79 | 180 | 3.5 | 10.4 | 0.00 | 0.00 | 0.00 | 34 | 1001.8 |
| 20260505213054 | 80 | 200 | 5.2 | 11.3 | 0.00 | 0.00 | 0.00 | 33 | 1001.7 |
| 20260505211544 | 81 | 207 | 6.1 | 11.3 | 0.00 | 0.00 | 0.00 | 33 | 1001.2 |
| 20260505210043 | 81 | 214 | 5.2 | 13.0 | 0.00 | 0.00 | 0.00 | 34 | 1001.1 |
| 20260505204543 | 81 | 187 | 4.3 | 9.6 | 0.00 | 0.00 | 0.00 | 35 | 1001.3 |
| 20260505203046 | 80 | 182 | 6.1 | 15.6 | 0.00 | 0.00 | 0.00 | 34 | 1001.2 |